Location: Unspecified
(0.0000°N, 0.0000°E)
Time: 15:01:50
(UTC+00:00)

Altair - All Passes

Search period start: 27 June 2016 00:00
Search period end: 07 July 2016 00:00
Orbit: 1502 x 1682 km, 47.2° (Epoch: 27 June)

Date Brightness Start Highest point End Pass type
(mag) Time Alt. Az. Time Alt. Az. Time Alt. Az.
27 Jun - 00:43:55 10° SSW 00:52:12 37° SE 01:00:34 10° ENE visible
27 Jun - 02:48:02 10° WSW 02:56:40 45° NW 03:05:33 10° NNE visible
27 Jun - 11:31:33 10° N 11:37:10 16° NE 11:42:44 10° E daylight
27 Jun - 13:32:10 10° NW 13:42:22 81° NE 13:52:18 10° SE daylight
27 Jun - 15:40:09 10° W 15:47:10 21° SW 15:54:07 10° S daylight
28 Jun - 00:19:04 10° SSW 00:27:03 33° SE 00:35:05 10° ENE visible
28 Jun - 02:22:43 10° WSW 02:31:31 50° NW 02:40:34 10° NNE visible
28 Jun - 11:07:15 10° NNE 11:11:52 14° NE 11:16:27 10° ENE daylight
28 Jun - 13:07:02 10° NNW 13:17:10 73° NE 13:27:06 10° SE daylight
28 Jun - 15:14:20 10° W 15:21:56 24° SW 15:29:27 10° S daylight
28 Jun - 23:54:16 10° S 00:01:54 29° SE 00:09:34 10° ENE night (unlit)
29 Jun - 01:57:27 10° SW 02:06:23 56° NW 02:15:33 10° NNE visible
29 Jun - 10:43:20 10° NNE 10:46:33 12° NE 10:49:44 10° ENE daylight
29 Jun - 12:41:56 10° NNW 12:52:00 66° NE 13:01:52 10° SE daylight
29 Jun - 14:48:37 10° WNW 14:56:43 28° SW 15:04:43 10° S daylight
29 Jun - 23:29:30 10° S 23:36:44 26° SE 23:43:58 10° E night (unlit)
30 Jun - 01:32:12 10° SW 01:41:15 63° NW 01:50:30 10° NNE visible
30 Jun - 12:16:51 10° NNW 12:26:48 59° NE 12:36:35 10° SE daylight
30 Jun - 14:22:59 10° WNW 14:31:31 31° SW 14:39:55 10° S daylight
30 Jun - 23:04:47 10° S 23:11:33 23° SE 23:18:18 10° E night (unlit)
01 Jul - 01:07:00 10° SW 01:16:07 71° NW 01:25:26 10° NNE visible
01 Jul - 03:18:10 10° WNW 03:21:16 12° NW 03:24:24 10° NNW visible
01 Jul - 11:51:50 10° NNW 12:01:37 53° NE 12:11:17 10° SE daylight
01 Jul - 13:57:26 10° WNW 14:06:18 35° SW 14:15:05 10° SSE daylight
01 Jul - 22:40:10 10° S 22:46:21 20° SE 22:52:32 10° E night (unlit)
02 Jul - 00:41:50 10° SW 00:51:00 79° NW 01:00:20 10° NE visible
02 Jul - 02:51:41 10° WNW 02:56:00 14° NW 03:00:23 10° NNW visible
02 Jul - 11:26:49 10° NNW 11:36:25 47° NE 11:45:56 10° ESE daylight
02 Jul - 13:31:55 10° WNW 13:41:06 39° SW 13:50:11 10° SSE daylight
02 Jul - 22:15:38 10° S 22:21:09 17° SE 22:26:39 10° E night (unlit)
03 Jul - 00:16:41 10° SW 00:25:53 88° NW 00:35:12 10° NE visible
03 Jul - 02:25:33 10° W 02:30:45 16° NW 02:36:03 10° N visible
03 Jul - 11:01:50 10° NNW 11:11:13 42° NE 11:20:31 10° ESE daylight
03 Jul - 13:06:28 10° WNW 13:15:55 44° SW 13:25:15 10° SSE daylight
03 Jul - 21:51:15 10° SSE 21:55:56 15° SE 22:00:34 10° ESE night (unlit)
03 Jul - 23:51:34 10° SW 00:00:46 84° SE 00:10:03 10° NE visible
04 Jul - 01:59:37 10° W 02:05:31 19° NW 02:11:32 10° N visible
04 Jul - 10:36:54 10° NNW 10:46:01 38° NE 10:55:05 10° ESE daylight
04 Jul - 12:41:03 10° WNW 12:50:43 50° SW 13:00:17 10° SSE daylight
04 Jul - 21:27:08 10° SSE 21:30:41 13° SE 21:34:13 10° ESE night (unlit)
04 Jul - 23:26:29 10° SW 23:35:39 75° SE 23:44:52 10° NE night (unlit)
05 Jul - 01:33:50 10° W 01:40:19 21° NW 01:46:55 10° N visible
05 Jul - 10:12:00 10° NNW 10:20:48 34° NE 10:29:34 10° ESE daylight
05 Jul - 12:15:42 10° NW 12:25:32 55° SW 12:35:17 10° SSE daylight
05 Jul - 21:03:47 10° SSE 21:05:25 11° SE 21:07:03 10° SE night (unlit)
05 Jul - 23:01:25 10° SSW 23:10:32 67° SE 23:19:40 10° NE night (unlit)
06 Jul - 01:08:08 10° W 01:15:06 24° NW 01:22:13 10° N visible
06 Jul - 09:47:08 10° N 09:55:35 30° NE 10:04:00 10° ESE daylight
06 Jul - 11:50:23 10° NW 12:00:21 62° SW 12:10:15 10° SSE daylight
06 Jul - 14:04:09 10° SW 14:05:47 10° SW 14:07:25 10° SW daylight
06 Jul - 22:36:23 10° SSW 22:45:25 60° SE 22:54:25 10° NE night (unlit)
